When you browse on this site, cookies collect data to enhance your experience and personalize the content and advertising you see.
Visit our Privacy Policy to learn more. By continuing to use the site, you agree to this use of cookies and data.
  • In Romania
  • List of Countries
  • For 7 days
  • Water Temperature
  • Weather Map
  • Weather Widgets
  • user-avatar
    Login

    Hourly Weather Guadalajara

    Today, 16 December, Monday

    Time Temperature Precipitation Wind Pressure Humidity
    00:00 +7°C° 0 mm 3 mps 694 mmHg 86%
    01:00 +7°C° 0 mm 3 mps 693 mmHg 86%
    02:00 +7°C° 0 mm 3 mps 693 mmHg 87%
    03:00 +6°C° 0 mm 4 mps 692 mmHg 87%
    04:00 +7°C° 0 mm 3 mps 692 mmHg 86%
    05:00 +7°C° 0 mm 3 mps 692 mmHg 85%
    06:00 +5°C° 0 mm 3 mps 691 mmHg 84%
    07:00 +7°C° 0 mm 3 mps 691 mmHg 81%
    08:00 +7°C° 0 mm 3 mps 691 mmHg 77%
    09:00 +8°C° 0 mm 3 mps 691 mmHg 74%
    10:00 +8°C° 0 mm 5 mps 690 mmHg 64%
    11:00 +10°C° 0 mm 6 mps 689 mmHg 53%
    12:00 +12°C° 0 mm 8 mps 689 mmHg 43%
    13:00 +12°C° 0 mm 8 mps 688 mmHg 41%
    14:00 +12°C° 0 mm 8 mps 687 mmHg 39%
    15:00 +14°C° 0 mm 7 mps 687 mmHg 37%
    16:00 +11°C° 0 mm 7 mps 686 mmHg 46%
    17:00 +10°C° 0 mm 6 mps 686 mmHg 55%
    18:00 +9°C° 0 mm 6 mps 686 mmHg 64%
    19:00 +8°C° 0.2 mm 5 mps 686 mmHg 70%
    20:00 +8°C° 0.2 mm 5 mps 687 mmHg 77%
    21:00 +8°C° 0.2 mm 4 mps 687 mmHg 83%
    22:00 +7°C° 0 mm 4 mps 687 mmHg 84%
    23:00 +8°C° 0 mm 3 mps 686 mmHg 85%

    Tomorrow, 17 December, Tuesday

    Time Temperature Precipitation Wind Pressure Humidity
    00:00 +8°C° 0 mm 3 mps 686 mmHg 86%
    01:00 +8°C° 0 mm 3 mps 686 mmHg 87%
    02:00 +7°C° 0 mm 3 mps 685 mmHg 88%
    03:00 +7°C° 0 mm 3 mps 685 mmHg 89%
    04:00 +7°C° 0.2 mm 2 mps 685 mmHg 89%
    05:00 +8°C° 0.2 mm 1 mps 684 mmHg 90%
    06:00 +8°C° 0.2 mm 1 mps 684 mmHg 90%
    07:00 +7°C° 0.7 mm 2 mps 685 mmHg 89%
    08:00 +7°C° 0.7 mm 2 mps 685 mmHg 87%
    09:00 +7°C° 0.7 mm 3 mps 686 mmHg 85%
    10:00 +8°C° 0.1 mm 3 mps 686 mmHg 83%
    11:00 +8°C° 0.1 mm 3 mps 687 mmHg 81%
    12:00 +8°C° 0.1 mm 3 mps 687 mmHg 79%
    13:00 +8°C° 0.1 mm 3 mps 688 mmHg 79%
    14:00 +8°C° 0.1 mm 3 mps 689 mmHg 79%
    15:00 +8°C° 0.1 mm 2 mps 689 mmHg 78%
    16:00 +7°C° 0.1 mm 2 mps 690 mmHg 80%
    17:00 +7°C° 0.1 mm 2 mps 691 mmHg 82%
    18:00 +6°C° 0.1 mm 2 mps 692 mmHg 83%
    19:00 +5°C° 0 mm 2 mps 692 mmHg 83%
    20:00 +5°C° 0 mm 2 mps 693 mmHg 84%
    21:00 +5°C° 0 mm 2 mps 694 mmHg 84%
    22:00 +4°C° 0 mm 2 mps 694 mmHg 84%
    23:00 +5°C° 0 mm 1 mps 694 mmHg 84%

    Day after tomorrow, 18 December, Wednesday

    Time Temperature Precipitation Wind Pressure Humidity
    00:00 +5°C° 0 mm 1 mps 695 mmHg 83%
    01:00 +4°C° 0 mm 1 mps 695 mmHg 84%
    02:00 +4°C° 0 mm 1 mps 695 mmHg 85%
    03:00 +3°C° 0 mm 1 mps 695 mmHg 85%
    04:00 +3°C° 0 mm 1 mps 696 mmHg 86%
    05:00 +2°C° 0 mm 1 mps 696 mmHg 86%
    06:00 +2°C° 0 mm 1 mps 696 mmHg 86%
    07:00 +1°C° 0 mm 2 mps 696 mmHg 85%
    08:00 +2°C° 0 mm 2 mps 696 mmHg 84%
    09:00 +2°C° 0 mm 2 mps 696 mmHg 83%
    10:00 +2°C° 0 mm 3 mps 696 mmHg 81%
    11:00 +3°C° 0 mm 3 mps 696 mmHg 78%
    12:00 +4°C° 0 mm 3 mps 696 mmHg 76%
    13:00 +4°C° 0.3 mm 3 mps 695 mmHg 81%
    14:00 +4°C° 0.3 mm 3 mps 695 mmHg 85%
    15:00 +4°C° 0.3 mm 3 mps 694 mmHg 90%
    16:00 +5°C° 0.3 mm 3 mps 693 mmHg 92%
    17:00 +6°C° 0.3 mm 4 mps 693 mmHg 93%
    18:00 +6°C° 0.3 mm 5 mps 693 mmHg 94%
    19:00 +7°C° 1.1 mm 6 mps 692 mmHg 94%
    20:00 +8°C° 1.1 mm 7 mps 692 mmHg 93%
    21:00 +8°C° 1.1 mm 9 mps 692 mmHg 93%
    22:00 +8°C° 2.6 mm 9 mps 692 mmHg 93%
    23:00 +9°C° 2.6 mm 8 mps 692 mmHg 94%

    19 December, Thursday

    Time Temperature Precipitation Wind Pressure Humidity
    00:00 +9°C° 2.6 mm 8 mps 691 mmHg 94%
    01:00 +9°C° 0.4 mm 8 mps 691 mmHg 94%
    02:00 +9°C° 0.4 mm 7 mps 691 mmHg 93%
    03:00 +8°C° 0.4 mm 7 mps 691 mmHg 92%
    04:00 +8°C° 0.3 mm 7 mps 691 mmHg 88%
    05:00 +6°C° 0.3 mm 8 mps 691 mmHg 84%
    06:00 +5°C° 0.3 mm 8 mps 691 mmHg 80%
    07:00 +5°C° 0.4 mm 9 mps 692 mmHg 81%
    08:00 +5°C° 0.4 mm 9 mps 692 mmHg 83%
    09:00 +5°C° 0.4 mm 10 mps 693 mmHg 84%
    10:00 +5°C° 0.1 mm 10 mps 693 mmHg 80%
    11:00 +6°C° 0.1 mm 10 mps 693 mmHg 75%
    12:00 +7°C° 0.1 mm 10 mps 694 mmHg 71%
    13:00 +7°C° 0 mm 9 mps 694 mmHg 71%
    14:00 +7°C° 0 mm 9 mps 693 mmHg 71%
    15:00 +7°C° 0 mm 8 mps 693 mmHg 71%
    16:00 +6°C° 0.4 mm 8 mps 693 mmHg 78%
    17:00 +6°C° 0.4 mm 7 mps 692 mmHg 84%
    18:00 +7°C° 0.4 mm 6 mps 692 mmHg 90%
    19:00 +6°C° 2.6 mm 8 mps 690 mmHg 91%
    20:00 +7°C° 2.6 mm 10 mps 689 mmHg 91%
    21:00 +7°C° 2.6 mm 12 mps 688 mmHg 92%
    22:00 +8°C° 1.6 mm 13 mps 686 mmHg 91%
    23:00 +9°C° 1.6 mm 14 mps 685 mmHg 89%

    20 December, Friday

    Time Temperature Precipitation Wind Pressure Humidity
    00:00 +10°C° 1.6 mm 16 mps 684 mmHg 88%
    01:00 +10°C° 2.6 mm 16 mps 684 mmHg 88%
    02:00 +10°C° 2.6 mm 17 mps 683 mmHg 88%
    03:00 +10°C° 2.6 mm 17 mps 683 mmHg 87%
    04:00 +10°C° 1.5 mm 15 mps 683 mmHg 84%
    05:00 +9°C° 1.5 mm 14 mps 683 mmHg 80%
    06:00 +9°C° 1.5 mm 12 mps 684 mmHg 76%
    07:00 +9°C° 0.3 mm 11 mps 685 mmHg 77%
    08:00 +8°C° 0.3 mm 10 mps 686 mmHg 79%
    09:00 +7°C° 0.3 mm 8 mps 688 mmHg 80%
    10:00 +7°C° 0.3 mm 8 mps 688 mmHg 78%
    11:00 +7°C° 0.3 mm 8 mps 689 mmHg 77%
    12:00 +8°C° 0.3 mm 7 mps 689 mmHg 76%
    13:00 +7°C° 0.5 mm 8 mps 689 mmHg 77%
    14:00 +7°C° 0.5 mm 8 mps 690 mmHg 78%
    15:00 +6°C° 0.5 mm 8 mps 690 mmHg 78%
    16:00 +6°C° 0 mm 7 mps 691 mmHg 77%
    17:00 +7°C° 0 mm 5 mps 691 mmHg 76%
    18:00 +6°C° 0 mm 4 mps 692 mmHg 74%
    19:00 +6°C° 0 mm 4 mps 693 mmHg 74%
    20:00 +6°C° 0 mm 4 mps 693 mmHg 73%
    21:00 +6°C° 0 mm 4 mps 694 mmHg 72%
    22:00 +5°C° 0 mm 3 mps 694 mmHg 73%
    23:00 +5°C° 0 mm 3 mps 695 mmHg 74%

    21 December, Saturday

    Time Temperature Precipitation Wind Pressure Humidity
    00:00 +5°C° 0 mm 2 mps 695 mmHg 75%
    01:00 +5°C° 0 mm 2 mps 695 mmHg 77%
    02:00 +4°C° 0 mm 2 mps 696 mmHg 78%
    03:00 +5°C° 0 mm 1 mps 696 mmHg 80%
    04:00 +5°C° 0 mm 1 mps 696 mmHg 81%
    05:00 +4°C° 0 mm 1 mps 696 mmHg 83%
    06:00 +4°C° 0 mm 1 mps 697 mmHg 85%
    07:00 +5°C° 0 mm 1 mps 697 mmHg 86%
    08:00 +5°C° 0 mm 1 mps 698 mmHg 86%
    09:00 +6°C° 0 mm 1 mps 698 mmHg 87%
    10:00 +6°C° 0 mm 2 mps 698 mmHg 84%
    11:00 +7°C° 0 mm 3 mps 698 mmHg 80%
    12:00 +8°C° 0 mm 3 mps 698 mmHg 77%
    13:00 +8°C° 0 mm 3 mps 698 mmHg 79%
    14:00 +8°C° 0 mm 2 mps 698 mmHg 81%
    15:00 +8°C° 0 mm 2 mps 698 mmHg 84%
    16:00 +8°C° 0 mm 2 mps 698 mmHg 87%
    17:00 +8°C° 0 mm 1 mps 699 mmHg 89%
    18:00 +8°C° 0 mm 1 mps 699 mmHg 92%
    19:00 +8°C° 0 mm 1 mps 699 mmHg 93%
    20:00 +8°C° 0 mm 1 mps 700 mmHg 94%
    21:00 +8°C° 0 mm 1 mps 700 mmHg 95%
    22:00 +8°C° 0 mm 1 mps 700 mmHg 95%
    23:00 +8°C° 0 mm 1 mps 701 mmHg 95%
    Show more